Orbital Elements at Epoch 2459000.5 (2020-May-31.0) TDB
Reference: JPL 12 (heliocentric ecliptic J2000)
Element | Value | Uncertainty (1-sigma) | Units |
e | .05615907845728556 | 5.229e-08 | |
a | 2.703902453263607 | 3.3255e-08 | au |
q | 2.55205378324993 | 1.4294e-07 | au |
i | 5.771543698591731 | 7.6034e-06 | deg |
node | 330.3847222961642 | 5.1912e-05 | deg |
peri | 250.1398798998083 | 8.6274e-05 | deg |
M | 48.45663106741743 | 6.6089e-05 | deg |
tp | 2458781.907290890854 (2019-Oct-25.40729089) | 0.00029945 | TDB |
period | 1623.996005207358 4.45 | 2.996e-05 8.203e-08 | d yr |
n | .2216754221350648 | 4.0896e-09 | deg/d |
Q | 2.855751123277285 | 3.5123e-08 | au |
|
| | Orbit Determination Parameters
Additional Information
|